CLUSTER II-FM8 (TANGO)

Last updated on Oct. 27, 2020, 5:53 a.m. UTC

1 26464U 00045B   20302.78856500  .00000377  00000-0  00000+0 0  9993
2 26464 132.1547 342.6586 4559051 186.6096   0.7077  0.44220301 58859
UTC
Height (km)
Latitude
Longitude
Inclination
Orbital Period
UTC large
Height (km)
Speed (km/s)
/
Latitude / Longitude
Inclination (degrees)
Orbital Period (minutes)
Azimuth
Elevation
Range (km)
Doppler Factor
iOS Compass Heading
iOS Angle

Next 30 passes for location: Hong Kong

Rise time Rise Azimuth (degrees) Set time Set Azimuth (degrees) Duration Max altitude (degrees)

No matching passes for this satellites